BAW754 EGLL-LSGG

Flight info

Callsign BAW754
Flight time N/A
Altitude 37000
Route MODMI M185 MID UL612 VEULE DCT PEKIM DCT PILUL DCT PIMUP/N0423F270 DCT PIXIS DCT PIBAT/N0398F230 DCT LUSAR
Aircraft A319/M-SDE3FGHIRWY/LB1

Departure

Time 2026-05-07 11:37
Airport London Heathrow Airport (EGLL)

Arrival

Time N/A
Airport Geneva International Airport (LSGG)
Time Latitude Longitude Altitude Speed Heading
2026-05-07 11:18 51.47188 -0.48592 88 ft 0 kts 269°
2026-05-07 11:27 51.47188 -0.48572 89 ft 4 kts 269°
2026-05-07 11:28 51.47188 -0.48532 86 ft 2 kts 269°
2026-05-07 11:28 51.47190 -0.48496 86 ft 4 kts 242°
2026-05-07 11:28 51.47207 -0.48473 88 ft 4 kts 182°
2026-05-07 11:28 51.47226 -0.48473 86 ft 0 kts 179°
2026-05-07 11:34 51.47216 -0.48473 90 ft 6 kts 179°
2026-05-07 11:34 51.47151 -0.48472 86 ft 11 kts 178°
2026-05-07 11:34 51.47061 -0.48471 89 ft 15 kts 180°
2026-05-07 11:34 51.46945 -0.48471 86 ft 18 kts 179°
2026-05-07 11:35 51.46840 -0.48468 86 ft 17 kts 179°
2026-05-07 11:35 51.46733 -0.48467 86 ft 15 kts 180°
2026-05-07 11:35 51.46633 -0.48468 86 ft 10 kts 180°
2026-05-07 11:35 51.46592 -0.48468 87 ft 0 kts 180°
2026-05-07 11:36 51.46591 -0.48468 87 ft 1 kts 180°
2026-05-07 11:36 51.46555 -0.48467 87 ft 8 kts 180°
2026-05-07 11:36 51.46488 -0.48463 87 ft 7 kts 159°
2026-05-07 11:37 51.46479 -0.48309 88 ft 36 kts 90°
2026-05-07 11:37 51.46479 -0.47537 85 ft 101 kts 90°
2026-05-07 11:37 51.46487 -0.46089 100 ft 156 kts 89°
2026-05-07 11:37 51.46507 -0.44332 733 ft 157 kts 89°
2026-05-07 11:38 51.46527 -0.42569 1481 ft 161 kts 90°
2026-05-07 11:38 51.46180 -0.40754 1940 ft 185 kts 124°
2026-05-07 11:38 51.45379 -0.38964 2418 ft 210 kts 128°
2026-05-07 11:38 51.44145 -0.37518 2968 ft 235 kts 161°
2026-05-07 11:39 51.42517 -0.36678 3738 ft 255 kts 164°
2026-05-07 11:39 51.40766 -0.35894 4212 ft 262 kts 173°
2026-05-07 11:39 51.38966 -0.36189 4984 ft 263 kts 201°
2026-05-07 11:39 51.37316 -0.37456 6144 ft 264 kts 208°
2026-05-07 11:40 51.35670 -0.38802 7236 ft 268 kts 208°
2026-05-07 11:40 51.33993 -0.40170 8266 ft 273 kts 207°
2026-05-07 11:40 51.32283 -0.41564 9291 ft 278 kts 206°
2026-05-07 11:40 51.30556 -0.42946 10238 ft 285 kts 206°
2026-05-07 11:41 51.28712 -0.44387 10715 ft 307 kts 205°
2026-05-07 11:41 51.26760 -0.45901 11475 ft 315 kts 205°
2026-05-07 11:41 51.24777 -0.47459 12352 ft 320 kts 206°
2026-05-07 11:41 51.22771 -0.49055 13255 ft 324 kts 206°
2026-05-07 11:42 51.20734 -0.50660 14106 ft 329 kts 206°
2026-05-07 11:42 51.18670 -0.52265 14905 ft 332 kts 206°
2026-05-07 11:42 51.16583 -0.53875 15709 ft 335 kts 205°
2026-05-07 11:42 51.14344 -0.54985 16477 ft 340 kts 187°
2026-05-07 11:43 51.11980 -0.54803 17253 ft 345 kts 167°
2026-05-07 11:43 51.09750 -0.53332 18028 ft 350 kts 153°
2026-05-07 11:43 51.07586 -0.51497 18750 ft 354 kts 153°
2026-05-07 11:43 51.05410 -0.49635 19421 ft 358 kts 153°
2026-05-07 11:44 51.03209 -0.47746 20091 ft 361 kts 153°
2026-05-07 11:44 51.00984 -0.45843 20759 ft 365 kts 153°
2026-05-07 11:44 50.98734 -0.43925 21417 ft 369 kts 153°
2026-05-07 11:44 50.96462 -0.41991 22063 ft 372 kts 153°
2026-05-07 11:45 50.94167 -0.40043 22701 ft 376 kts 154°
2026-05-07 11:45 50.91847 -0.38077 23347 ft 380 kts 154°
2026-05-07 11:45 50.89496 -0.36090 23918 ft 384 kts 154°
2026-05-07 11:45 50.87129 -0.34093 24457 ft 387 kts 154°
2026-05-07 11:46 50.84739 -0.32078 24986 ft 391 kts 154°
2026-05-07 11:46 50.82328 -0.30048 25515 ft 394 kts 154°
2026-05-07 11:46 50.79894 -0.28003 26045 ft 398 kts 154°
2026-05-07 11:46 50.77443 -0.25944 26569 ft 401 kts 154°
2026-05-07 11:47 50.75006 -0.23894 27081 ft 404 kts 154°
2026-05-07 11:47 50.72518 -0.21802 27593 ft 407 kts 154°
2026-05-07 11:47 50.70007 -0.19693 28101 ft 410 kts 154°
2026-05-07 11:47 50.67478 -0.17572 28601 ft 413 kts 154°
2026-05-07 11:48 50.64923 -0.15438 29109 ft 417 kts 154°
2026-05-07 11:48 50.62348 -0.13289 29552 ft 421 kts 154°
2026-05-07 11:48 50.59744 -0.11117 30023 ft 425 kts 154°
2026-05-07 11:48 50.57120 -0.08934 30448 ft 428 kts 154°
2026-05-07 11:49 50.54478 -0.06742 30865 ft 431 kts 154°
2026-05-07 11:49 50.51818 -0.04536 31276 ft 433 kts 154°
2026-05-07 11:49 50.49148 -0.02320 31750 ft 434 kts 154°
2026-05-07 11:49 50.46483 -0.00104 32326 ft 432 kts 154°
2026-05-07 11:50 50.43890 0.02297 32900 ft 432 kts 148°
2026-05-07 11:50 50.41388 0.04893 33462 ft 431 kts 149°
2026-05-07 11:50 50.38881 0.07489 34014 ft 431 kts 149°
2026-05-07 11:50 50.36382 0.10070 34490 ft 430 kts 149°
2026-05-07 11:51 50.33917 0.12613 34924 ft 429 kts 149°
2026-05-07 11:51 50.31389 0.15220 35351 ft 429 kts 149°
2026-05-07 11:51 50.28899 0.17783 35765 ft 429 kts 149°
2026-05-07 11:51 50.26444 0.20312 36163 ft 428 kts 149°
2026-05-07 11:52 50.23956 0.22869 36557 ft 428 kts 149°
2026-05-07 11:52 50.21472 0.25420 36940 ft 428 kts 149°
2026-05-07 11:52 50.18977 0.27981 37066 ft 427 kts 149°
2026-05-07 11:53 50.14055 0.33041 37090 ft 422 kts 149°
2026-05-07 11:53 50.09161 0.38068 37090 ft 421 kts 149°
2026-05-07 11:54 50.04266 0.43072 37092 ft 421 kts 149°
2026-05-07 11:54 49.99369 0.48073 37089 ft 421 kts 149°
2026-05-07 11:55 49.94463 0.53073 37073 ft 422 kts 149°
2026-05-07 11:55 49.89551 0.58060 37078 ft 422 kts 149°
2026-05-07 11:56 49.84765 0.63311 37076 ft 424 kts 139°